| time (UTC) | temp F | wind direction | speed MPH | gust MPH | rain 1hr in | rain 24hr in | rain mn in | humidity % | barometer mb |
| 20260509183354 | 59 | 20 | 5.0 | 0.0 | 0.00 | 0.00 | 0.00 | 94 | 1015.0 |
| 20260509181854 | 59 | 20 | 5.0 | 0.0 | 0.00 | 0.00 | 0.00 | 94 | 1015.0 |
| 20260509180354 | 59 | 20 | 5.0 | 0.0 | 0.00 | 0.00 | 0.00 | 94 | 1015.0 |
| 20260509174854 | 59 | 60 | 7.0 | 0.0 | 0.00 | 0.00 | 0.00 | 100 | 1015.0 |
| 20260509173355 | 59 | 60 | 7.0 | 0.0 | 0.00 | 0.00 | 0.00 | 100 | 1015.0 |
| 20260509171851 | 59 | 60 | 7.0 | 0.0 | 0.00 | 0.00 | 0.00 | 100 | 1015.0 |
| 20260509170354 | 59 | 60 | 7.0 | 0.0 | 0.00 | 0.00 | 0.00 | 100 | 1015.0 |
| 20260509164847 | 59 | 110 | 9.0 | 0.0 | 0.00 | 0.00 | 0.00 | 100 | 1015.0 |
| 20260509163354 | 59 | 110 | 9.0 | 0.0 | 0.00 | 0.00 | 0.00 | 100 | 1015.0 |
| 20260509161850 | 59 | 110 | 9.0 | 0.0 | 0.00 | 0.00 | 0.00 | 100 | 1015.0 |
| 20260509160353 | 59 | 110 | 9.0 | 0.0 | 0.00 | 0.00 | 0.00 | 100 | 1015.0 |
| 20260509154854 | 61 | 60 | 11.0 | 0.0 | 0.00 | 0.00 | 0.00 | 83 | 1015.0 |
| 20260509153353 | 61 | 60 | 11.0 | 0.0 | 0.00 | 0.00 | 0.00 | 83 | 1015.0 |
| 20260509151854 | 61 | 60 | 11.0 | 0.0 | 0.00 | 0.00 | 0.00 | 83 | 1015.0 |
| 20260509150354 | 61 | 60 | 11.0 | 0.0 | 0.00 | 0.00 | 0.00 | 83 | 1015.0 |
| 20260509144854 | 61 | 40 | 14.0 | 0.0 | 0.00 | 0.00 | 0.00 | 77 | 1015.0 |
| 20260509143353 | 61 | 40 | 14.0 | 0.0 | 0.00 | 0.00 | 0.00 | 77 | 1015.0 |
| 20260509141850 | 61 | 40 | 14.0 | 0.0 | 0.00 | 0.00 | 0.00 | 77 | 1015.0 |
| 20260509140354 | 61 | 40 | 14.0 | 0.0 | 0.00 | 0.00 | 0.00 | 77 | 1015.0 |
| 20260509134854 | 61 | 30 | 11.0 | 0.0 | 0.00 | 0.00 | 0.00 | 83 | 1015.0 |
| 20260509133354 | 61 | 30 | 11.0 | 0.0 | 0.00 | 0.00 | 0.00 | 83 | 1015.0 |
| 20260509131851 | 61 | 30 | 11.0 | 0.0 | 0.00 | 0.00 | 0.00 | 83 | 1015.0 |
| 20260509130353 | 0 | 0.0 | 0.0 | 0.00 | 0.00 | 0.00 | |||
| 20260509124854 | 61 | 40 | 11.0 | 0.0 | 0.00 | 0.00 | 0.00 | 83 | 1015.0 |
| 20260509123354 | 61 | 40 | 11.0 | 0.0 | 0.00 | 0.00 | 0.00 | 83 | 1015.0 |
| 20260509121844 | 61 | 40 | 11.0 | 0.0 | 0.00 | 0.00 | 0.00 | 83 | 1015.0 |
| 20260509120353 | 61 | 40 | 11.0 | 0.0 | 0.00 | 0.00 | 0.00 | 83 | 1015.0 |
| 20260509114850 | 61 | 50 | 14.0 | 0.0 | 0.00 | 0.00 | 0.00 | 83 | 1016.0 |
| 20260509113353 | 61 | 50 | 14.0 | 0.0 | 0.00 | 0.00 | 0.00 | 83 | 1016.0 |
| 20260509111854 | 61 | 50 | 14.0 | 0.0 | 0.00 | 0.00 | 0.00 | 83 | 1016.0 |
| 20260509110353 | 0 | 0.0 | 0.0 | 0.00 | 0.00 | 0.00 | |||
| 20260509104850 | 61 | 50 | 14.0 | 0.0 | 0.00 | 0.00 | 0.00 | 83 | 1016.0 |
| 20260509103354 | 61 | 50 | 14.0 | 0.0 | 0.00 | 0.00 | 0.00 | 83 | 1016.0 |
| 20260509101851 | 61 | 50 | 14.0 | 0.0 | 0.00 | 0.00 | 0.00 | 83 | 1016.0 |
| 20260509100354 | 61 | 50 | 14.0 | 0.0 | 0.00 | 0.00 | 0.00 | 83 | 1016.0 |
| 20260509094850 | 61 | 40 | 14.0 | 0.0 | 0.00 | 0.00 | 0.00 | 77 | 1016.0 |
| 20260509093353 | 61 | 40 | 14.0 | 0.0 | 0.00 | 0.00 | 0.00 | 77 | 1016.0 |
| 20260509092026 | 0 | 0.0 | 0.0 | 0.00 | 0.00 | 0.00 | |||
| 20260509090354 | 61 | 40 | 14.0 | 0.0 | 0.00 | 0.00 | 0.00 | 77 | 1016.0 |
| 20260509084847 | 57 | 60 | 14.0 | 0.0 | 0.00 | 0.00 | 0.00 | 88 | 1016.0 |
| 20260509083353 | 57 | 60 | 14.0 | 0.0 | 0.00 | 0.00 | 0.00 | 88 | 1016.0 |
| 20260509081922 | 57 | 60 | 14.0 | 0.0 | 0.00 | 0.00 | 0.00 | 88 | 1016.0 |
| 20260509080354 | 57 | 60 | 14.0 | 0.0 | 0.00 | 0.00 | 0.00 | 88 | 1016.0 |
| 20260509074854 | 55 | 50 | 14.0 | 0.0 | 0.00 | 0.00 | 0.00 | 100 | 1016.0 |
| 20260509073354 | 55 | 50 | 14.0 | 0.0 | 0.00 | 0.00 | 0.00 | 100 | 1016.0 |
| 20260509071853 | 55 | 50 | 14.0 | 0.0 | 0.00 | 0.00 | 0.00 | 100 | 1016.0 |
| 20260509070353 | 55 | 50 | 14.0 | 0.0 | 0.00 | 0.00 | 0.00 | 100 | 1016.0 |
| 20260509064850 | 55 | 50 | 11.0 | 0.0 | 0.00 | 0.00 | 0.00 | 100 | 1016.0 |
| 20260509063354 | 55 | 50 | 11.0 | 0.0 | 0.00 | 0.00 | 0.00 | 100 | 1016.0 |
| 20260509061847 | 55 | 50 | 11.0 | 0.0 | 0.00 | 0.00 | 0.00 | 100 | 1016.0 |
| 20260509060353 | 0 | 0.0 | 0.0 | 0.00 | 0.00 | 0.00 | |||
| 20260509054847 | 54 | 40 | 11.0 | 0.0 | 0.00 | 0.00 | 0.00 | 94 | 1015.0 |
| 20260509053353 | 54 | 40 | 11.0 | 0.0 | 0.00 | 0.00 | 0.00 | 94 | 1015.0 |
| 20260509051850 | 54 | 40 | 11.0 | 0.0 | 0.00 | 0.00 | 0.00 | 94 | 1015.0 |
| 20260509050353 | 54 | 40 | 11.0 | 0.0 | 0.00 | 0.00 | 0.00 | 94 | 1015.0 |
| 20260509044851 | 54 | 40 | 11.0 | 0.0 | 0.00 | 0.00 | 0.00 | 100 | 1015.0 |
| 20260509043354 | 54 | 40 | 11.0 | 0.0 | 0.00 | 0.00 | 0.00 | 100 | 1015.0 |
| 20260509041848 | 54 | 40 | 11.0 | 0.0 | 0.00 | 0.00 | 0.00 | 100 | 1015.0 |
| 20260509040354 | 54 | 40 | 11.0 | 0.0 | 0.00 | 0.00 | 0.00 | 100 | 1015.0 |
| 20260509034851 | 54 | 40 | 9.0 | 0.0 | 0.00 | 0.00 | 0.00 | 100 | 1015.0 |
| 20260509033353 | 54 | 40 | 9.0 | 0.0 | 0.00 | 0.00 | 0.00 | 100 | 1015.0 |
| 20260509031848 | 54 | 40 | 9.0 | 0.0 | 0.00 | 0.00 | 0.00 | 100 | 1015.0 |
| 20260509030354 | 54 | 40 | 9.0 | 0.0 | 0.00 | 0.00 | 0.00 | 100 | 1015.0 |
| 20260509024844 | 52 | 3.0 | 0.0 | 0.00 | 0.00 | 0.00 | 100 | 1014.0 | |
| 20260509023350 | 52 | 3.0 | 0.0 | 0.00 | 0.00 | 0.00 | 100 | 1014.0 | |
| 20260509021850 | 0 | 0.0 | 0.0 | 0.00 | 0.00 | 0.00 | |||
| 20260509020354 | 0 | 0.0 | 0.0 | 0.00 | 0.00 | 0.00 | |||
| 20260509014851 | 54 | 3.0 | 0.0 | 0.00 | 0.00 | 0.00 | 100 | 1014.0 | |
| 20260509013351 | 54 | 3.0 | 0.0 | 0.00 | 0.00 | 0.00 | 100 | 1014.0 | |
| 20260509011851 | 54 | 3.0 | 0.0 | 0.00 | 0.00 | 0.00 | 100 | 1014.0 | |
| 20260509010353 | 54 | 3.0 | 0.0 | 0.00 | 0.00 | 0.00 | 100 | 1014.0 | |
| 20260509004853 | 54 | 3.0 | 0.0 | 0.00 | 0.00 | 0.00 | 100 | 1014.0 | |
| 20260509003353 | 54 | 3.0 | 0.0 | 0.00 | 0.00 | 0.00 | 100 | 1015.0 | |
| 20260509001851 | 54 | 3.0 | 0.0 | 0.00 | 0.00 | 0.00 | 100 | 1015.0 | |
| 20260509000355 | 54 | 3.0 | 0.0 | 0.00 | 0.00 | 0.00 | 100 | 1015.0 | |
| 20260508234850 | 59 | 20 | 7.0 | 0.0 | 0.00 | 0.00 | 0.00 | 88 | 1016.0 |
| 20260508233353 | 59 | 20 | 7.0 | 0.0 | 0.00 | 0.00 | 0.00 | 88 | 1016.0 |
| 20260508231851 | 59 | 20 | 7.0 | 0.0 | 0.00 | 0.00 | 0.00 | 88 | 1016.0 |
| 20260508230353 | 0 | 0.0 | 0.0 | 0.00 | 0.00 | 0.00 | |||
| 20260508224850 | 61 | 40 | 7.0 | 0.0 | 0.00 | 0.00 | 0.00 | 88 | 1016.0 |
| 20260508223354 | 61 | 40 | 7.0 | 0.0 | 0.00 | 0.00 | 0.00 | 88 | 1016.0 |
| 20260508221851 | 61 | 40 | 7.0 | 0.0 | 0.00 | 0.00 | 0.00 | 88 | 1016.0 |
| 20260508220354 | 61 | 40 | 7.0 | 0.0 | 0.00 | 0.00 | 0.00 | 88 | 1016.0 |
| 20260508214853 | 61 | 40 | 7.0 | 0.0 | 0.00 | 0.00 | 0.00 | 88 | 1016.0 |
| 20260508213353 | 61 | 3.0 | 0.0 | 0.00 | 0.00 | 0.00 | 83 | 1016.0 | |
| 20260508211850 | 61 | 3.0 | 0.0 | 0.00 | 0.00 | 0.00 | 83 | 1016.0 | |
| 20260508210353 | 61 | 3.0 | 0.0 | 0.00 | 0.00 | 0.00 | 83 | 1016.0 | |
| 20260508204847 | 0 | 0.0 | 0.0 | 0.00 | 0.00 | 0.00 | |||
| 20260508203350 | 0 | 0.0 | 0.0 | 0.00 | 0.00 | 0.00 | |||
| 20260508201848 | 0 | 0.0 | 0.0 | 0.00 | 0.00 | 0.00 | |||
| 20260508200350 | 0 | 0.0 | 0.0 | 0.00 | 0.00 | 0.00 | |||
| 20260508194848 | 63 | 40 | 7.0 | 0.0 | 0.00 | 0.00 | 0.00 | 88 | 1015.0 |
| 20260508193354 | 63 | 40 | 7.0 | 0.0 | 0.00 | 0.00 | 0.00 | 88 | 1015.0 |
| 20260508191851 | 63 | 40 | 7.0 | 0.0 | 0.00 | 0.00 | 0.00 | 88 | 1015.0 |
| 20260508190354 | 63 | 40 | 7.0 | 0.0 | 0.00 | 0.00 | 0.00 | 88 | 1015.0 |
| 20260508184853 | 66 | 30 | 7.0 | 0.0 | 0.00 | 0.00 | 0.00 | 78 | 1014.0 |